TimeEST,TemperatureF,Dew PointF,Humidity,Sea Level PressureIn,VisibilityMPH,Wind Direction,Wind SpeedMPH,Gust SpeedMPH,PrecipitationIn,Events,Conditions,WindDirDegrees,DateUTC
12:53 AM,55.0,48.9,80,29.97,10.0,Variable,4.6,-,N/A,,Overcast,0,2012-11-05 05:53:00
1:53 AM,54.0,46.9,77,29.99,10.0,Variable,5.8,-,N/A,,Overcast,0,2012-11-05 06:53:00
2:53 AM,53.1,46.9,80,29.99,10.0,Calm,Calm,-,N/A,,Mostly Cloudy,0,2012-11-05 07:53:00
5:53 AM,51.1,42.1,71,30.04,10.0,Variable,4.6,-,N/A,,Overcast,0,2012-11-05 10:53:00
6:53 AM,50.0,41.0,71,30.06,10.0,Variable,3.5,-,N/A,,Scattered Clouds,0,2012-11-05 11:53:00
7:53 AM,51.1,37.9,61,30.07,10.0,Variable,4.6,-,N/A,,Clear,0,2012-11-05 12:53:00
8:53 AM,53.1,36.0,52,30.09,10.0,Variable,5.8,-,N/A,,Clear,0,2012-11-05 13:53:00
9:53 AM,55.0,33.1,43,30.09,10.0,Calm,Calm,-,N/A,,Clear,0,2012-11-05 14:53:00
10:53 AM,57.9,32.0,37,30.08,10.0,Variable,5.8,-,N/A,,Clear,0,2012-11-05 15:53:00
11:53 AM,60.1,34.0,38,30.07,10.0,Variable,3.5,-,N/A,,Clear,0,2012-11-05 16:53:00
12:53 PM,61.0,36.0,39,30.04,10.0,Calm,Calm,-,N/A,,Clear,0,2012-11-05 17:53:00
1:53 PM,63.0,35.1,35,30.02,10.0,Calm,Calm,-,N/A,,Clear,0,2012-11-05 18:53:00
2:53 PM,64.0,35.1,34,30.01,10.0,Calm,Calm,-,N/A,,Clear,0,2012-11-05 19:53:00
3:53 PM,64.0,35.1,34,30.01,10.0,East,3.5,-,N/A,,Clear,80,2012-11-05 20:53:00
4:53 PM,63.0,35.1,35,30.01,10.0,Calm,Calm,-,N/A,,Clear,0,2012-11-05 21:53:00
5:53 PM,55.9,39.9,55,30.02,10.0,Calm,Calm,-,N/A,,Clear,0,2012-11-05 22:53:00
6:53 PM,52.0,41.0,66,30.04,10.0,Calm,Calm,-,N/A,,Clear,0,2012-11-05 23:53:00
7:53 PM,51.1,42.1,71,30.05,10.0,Calm,Calm,-,N/A,,Clear,0,2012-11-06 00:53:00
8:53 PM,52.0,39.9,63,30.06,10.0,Calm,Calm,-,N/A,,Clear,0,2012-11-06 01:53:00
9:53 PM,52.0,37.0,57,30.06,10.0,Calm,Calm,-,N/A,,Clear,0,2012-11-06 02:53:00
10:53 PM,48.9,37.9,66,30.06,10.0,Calm,Calm,-,N/A,,Clear,0,2012-11-06 03:53:00
11:53 PM,46.9,39.0,74,30.05,10.0,Calm,Calm,-,N/A,,Clear,0,2012-11-06 04:53:00